GW5006 Weather Reports


time (UTC)temp
F
wind
direction
speed
knots
gust
knots
rain 1hr
in
rain 24hr
in
rain mn
in
humidity
%
barometer
mb
20260906232657 73 233 0.9 1.7 0.00 0.00 0.00 33 1020.1
20260906232153 73 263 1.7 1.7 0.00 0.00 0.00 37 1020.0
20260906231647 73 156 0.9 1.7 0.00 0.00 0.00 31 1020.0
20260906231143 73 299 0.0 0.9 0.00 0.00 0.00 32 1020.0
20260906230642 73 242 0.0 1.7 0.00 0.00 0.00 31 1019.8
20260906230137 73 196 0.0 0.9 0.00 0.00 0.00 31 1019.8
20260906225635 74 137 0.0 0.9 0.00 0.00 0.00 30 1019.8
20260906225132 74 243 0.0 2.6 0.00 0.00 0.00 30 1020.1
20260906224632 74 233 1.7 2.6 0.00 0.00 0.00 31 1020.0
20260906224129 75 259 0.9 2.6 0.00 0.00 0.00 31 1019.8
20260906223625 75 241 1.7 1.7 0.00 0.00 0.00 28 1020.0
20260906223124 75 241 1.7 2.6 0.00 0.00 0.00 28 1020.0
20260906222623 75 233 0.9 2.6 0.00 0.00 0.00 26 1020.0
20260906222121 75 258 1.7 3.5 0.00 0.00 0.00 27 1019.7
20260906221615 76 230 2.6 3.5 0.00 0.00 0.00 25 1020.0
20260906221110 75 174 1.7 3.5 0.00 0.00 0.00 26 1019.8
20260906220605 75 232 1.7 2.6 0.00 0.00 0.00 27 1020.2
20260906220100 75 220 0.0 3.5 0.00 0.00 0.00 26 1019.7
20260906215559 75 226 1.7 4.3 0.00 0.00 0.00 26 1020.0
20260906215057 75 216 1.7 3.5 0.00 0.00 0.00 29 1019.8
20260906214555 75 216 1.7 2.6 0.00 0.00 0.00 27 1020.0
20260906214051 75 234 1.7 3.5 0.00 0.00 0.00 28 1019.8
20260906213549 76 221 2.6 2.6 0.00 0.00 0.00 30 1020.0
20260906213044 76 222 1.7 1.7 0.00 0.00 0.00 31 1019.8
20260906212537 76 218 1.7 2.6 0.00 0.00 0.00 31 1020.1
20260906212033 76 223 1.7 2.6 0.00 0.00 0.00 28 1020.0
20260906211532 76 213 1.7 3.5 0.00 0.00 0.00 29 1020.3
20260906211028 76 233 1.7 5.2 0.00 0.00 0.00 29 1020.3
20260906210523 75 197 1.7 2.6 0.00 0.00 0.00 29 1020.3
20260906210018 75 241 1.7 2.6 0.00 0.00 0.00 30 1020.6
20260906205514 76 226 0.0 3.5 0.00 0.00 0.00 30 1020.3
20260906205010 76 232 1.7 5.2 0.00 0.00 0.00 28 1020.3
20260906204509 77 232 1.7 3.5 0.00 0.00 0.00 27 1020.6
20260906204008 77 226 1.7 3.5 0.00 0.00 0.00 27 1020.6
20260906203504 77 240 3.5 4.3 0.00 0.00 0.00 28 1020.7
20260906203002 78 203 1.7 3.5 0.00 0.00 0.00 28 1020.6
20260906202500 78 236 1.7 4.3 0.00 0.00 0.00 27 1020.6
20260906201955 78 249 1.7 3.5 0.00 0.00 0.00 29 1020.6
20260906201449 78 209 1.7 2.6 0.00 0.00 0.00 26 1020.4
20260906200944 78 215 2.6 3.5 0.00 0.00 0.00 27 1020.4
20260906200441 77 237 1.7 3.5 0.00 0.00 0.00 28 1020.6
20260906195940 78 229 3.5 3.5 0.00 0.00 0.00 28 1020.8
20260906195436 77 255 1.7 4.3 0.00 0.00 0.00 27 1020.9
20260906194932 77 236 3.5 4.3 0.00 0.00 0.00 28 1020.7
20260906194428 77 241 1.7 2.6 0.00 0.00 0.00 28 1020.6
20260906193923 76 233 4.3 5.2 0.00 0.00 0.00 26 1020.9
20260906193419 77 224 3.5 3.5 0.00 0.00 0.00 27 1020.8
20260906192914 76 246 2.6 3.5 0.00 0.00 0.00 27 1021.0
20260906192413 76 209 1.7 3.5 0.00 0.00 0.00 25 1021.0
20260906191913 77 225 2.6 4.3 0.00 0.00 0.00 27 1021.2
20260906191409 76 236 2.6 3.5 0.00 0.00 0.00 28 1021.3
20260906190907 77 262 2.6 4.3 0.00 0.00 0.00 26 1021.4
20260906190406 75 242 2.6 4.3 0.00 0.00 0.00 25 1021.5
20260906185901 75 233 1.7 4.3 0.00 0.00 0.00 27 1021.8
20260906185400 76 234 2.6 3.5 0.00 0.00 0.00 26 1022.0
20260906184900 76 202 1.7 4.3 0.00 0.00 0.00 26 1022.0
20260906184355 75 242 1.7 3.5 0.00 0.00 0.00 25 1021.9
20260906183851 74 234 2.6 3.5 0.00 0.00 0.00 30 1021.9
20260906183347 73 297 0.9 3.5 0.00 0.00 0.00 28 1022.3
20260906182841 73 174 0.0 1.7 0.00 0.00 0.00 27 1022.1
20260906182337 74 251 2.6 3.5 0.00 0.00 0.00 33 1022.4
20260906181837 74 241 1.7 4.3 0.00 0.00 0.00 29 1022.1
20260906181334 74 236 1.7 3.5 0.00 0.00 0.00 28 1022.5
20260906180829 73 249 1.7 3.5 0.00 0.00 0.00 30 1022.5
20260906180324 73 233 2.6 3.5 0.00 0.00 0.00 30 1022.5
20260906175821 73 233 1.7 3.5 0.00 0.00 0.00 31 1022.6
20260906175317 73 243 3.5 3.5 0.00 0.00 0.00 30 1022.7
20260906174816 73 254 1.7 3.5 0.00 0.00 0.00 30 1022.9
20260906174315 73 235 2.6 3.5 0.00 0.00 0.00 32 1022.7
20260906173810 72 263 1.7 2.6 0.00 0.00 0.00 34 1023.0
20260906173306 72 229 4.3 5.2 0.00 0.00 0.00 32 1022.7
20260906172805 72 234 1.7 3.5 0.00 0.00 0.00 35 1023.0
20260906172301 71 240 3.5 4.3 0.00 0.00 0.00 34 1023.0
20260906171755 71 227 1.7 4.3 0.00 0.00 0.00 34 1023.1
20260906171251 70 175 1.7 3.5 0.00 0.00 0.00 35 1023.1
20260906170746 70 276 1.7 3.5 0.00 0.00 0.00 39 1023.1
20260906170242 70 226 2.6 4.3 0.00 0.00 0.00 35 1023.2
20260906165738 70 240 2.6 3.5 0.00 0.00 0.00 36 1023.2
20260906165232 69 243 3.5 3.5 0.00 0.00 0.00 38 1023.2
20260906164732 68 262 1.7 3.5 0.00 0.00 0.00 38 1023.3
20260906164227 68 277 2.6 3.5 0.00 0.00 0.00 39 1023.5
20260906163723 67 242 1.7 2.6 0.00 0.00 0.00 42 1023.6
20260906163219 66 235 1.7 1.7 0.00 0.00 0.00 42 1023.5
20260906162716 65 261 1.7 2.6 0.00 0.00 0.00 42 1023.5
20260906162216 64 279 1.7 2.6 0.00 0.00 0.00 41 1023.6
20260906161710 64 250 1.7 2.6 0.00 0.00 0.00 43 1023.6
20260906161209 61 266 1.7 1.7 0.00 0.00 0.00 43 1023.6
20260906160709 59 259 1.7 2.6 0.00 0.00 0.00 45 1023.5
20260906160203 59 264 1.7 1.7 0.00 0.00 0.00 47 1023.7
20260906155700 58 253 0.9 1.7 0.00 0.00 0.00 50 1023.7
20260906155155 57 263 0.0 1.7 0.00 0.00 0.00 52 1023.7
20260906154650 56 215 0.0 1.7 0.00 0.00 0.00 54 1023.7
20260906154150 55 245 1.7 2.6 0.00 0.00 0.00 54 1023.8
20260906153649 55 250 1.7 1.7 0.00 0.00 0.00 52 1023.7
20260906153144 54 257 1.7 2.6 0.00 0.00 0.00 52 1023.8
20260906152639 53 256 2.6 2.6 0.00 0.00 0.00 57 1023.9
20260906152133 53 242 1.7 2.6 0.00 0.00 0.00 57 1023.6
20260906151628 52 269 0.0 1.7 0.00 0.00 0.00 56 1023.8
20260906151124 51 250 1.7 1.7 0.00 0.00 0.00 58 1023.7
20260906150619 50 290 1.7 1.7 0.00 0.00 0.00 58 1023.7
20260906150115 50 264 1.7 2.6 0.00 0.00 0.00 58 1023.7
20260906145613 50 254 1.7 1.7 0.00 0.00 0.00 59 1023.8
20260906145108 50 261 2.6 2.6 0.00 0.00 0.00 59 1023.7
20260906144602 50 278 0.9 1.7 0.00 0.00 0.00 60 1023.9
20260906144058 50 271 1.7 1.7 0.00 0.00 0.00 56 1023.8
20260906143557 50 276 1.7 2.6 0.00 0.00 0.00 55 1023.9
20260906143054 50 263 0.0 1.7 0.00 0.00 0.00 58 1023.7
20260906142553 50 277 2.6 2.6 0.00 0.00 0.00 60 1023.7
20260906142049 50 297 0.9 1.7 0.00 0.00 0.00 59 1023.8
20260906141548 50 273 0.9 2.6 0.00 0.00 0.00 59 1023.7
20260906141044 50 282 1.7 2.6 0.00 0.00 0.00 60 1023.8
20260906140543 50 293 0.0 2.6 0.00 0.00 0.00 58 1023.8
20260906140043 50 287 1.7 1.7 0.00 0.00 0.00 58 1023.5
20260906135540 50 265 1.7 2.6 0.00 0.00 0.00 59 1023.8
20260906135036 50 277 0.9 1.7 0.00 0.00 0.00 57 1023.7
20260906134531 50 274 1.7 1.7 0.00 0.00 0.00 58 1023.6
20260906134026 49 291 0.9 2.6 0.00 0.00 0.00 59 1023.6
20260906133522 49 292 1.7 1.7 0.00 0.00 0.00 60 1023.8
20260906133017 49 297 1.7 2.6 0.00 0.00 0.00 57 1023.7
20260906132512 49 277 1.7 2.6 0.00 0.00 0.00 57 1023.6
20260906132008 50 255 1.7 2.6 0.00 0.00 0.00 59 1023.6
20260906131503 51 278 1.7 2.6 0.00 0.00 0.00 54 1023.6
20260906130958 51 304 1.7 2.6 0.00 0.00 0.00 53 1023.5
20260906130457 50 251 0.0 1.7 0.00 0.00 0.00 52 1023.3
20260906125952 50 302 0.9 2.6 0.00 0.00 0.00 55 1023.3
20260906125450 50 271 1.7 2.6 0.00 0.00 0.00 57 1023.2
20260906124949 51 285 0.0 2.6 0.00 0.00 0.00 57 1023.3
20260906124445 51 264 1.7 1.7 0.00 0.00 0.00 54 1023.5
20260906123944 51 283 1.7 2.6 0.00 0.00 0.00 55 1023.2
20260906123439 51 284 1.7 2.6 0.00 0.00 0.00 53 1023.1
20260906122938 51 288 1.7 2.6 0.00 0.00 0.00 56 1023.0
20260906122433 51 248 1.7 3.5 0.00 0.00 0.00 55 1023.2
20260906121930 51 303 1.7 2.6 0.00 0.00 0.00 55 1023.1
20260906121426 51 261 1.7 2.6 0.00 0.00 0.00 56 1023.2
20260906120923 51 263 1.7 2.6 0.00 0.00 0.00 52 1023.1
20260906120418 52 241 0.0 3.5 0.00 0.00 0.00 54 1023.0
20260906115914 52 290 0.9 3.5 0.00 0.00 0.00 55 1023.0
20260906115409 52 315 2.6 4.3 0.00 0.00 0.00 57 1023.0
20260906114908 52 338 0.0 1.7 0.00 0.00 0.00 54 1023.1
20260906114403 53 266 2.6 3.5 0.00 0.00 0.00 51 1022.9
20260906113859 53 280 0.0 2.6 0.00 0.00 0.00 52 1023.0
20260906113358 53 267 1.7 3.5 0.00 0.00 0.00 51 1023.0
20260906112854 54 241 1.7 2.6 0.00 0.00 0.00 49 1023.0
20260906112349 54 253 2.6 3.5 0.00 0.00 0.00 53 1023.0
20260906111843 55 259 0.9 2.6 0.00 0.00 0.00 53 1023.2
20260906111337 56 280 1.7 2.6 0.00 0.00 0.00 50 1023.0
20260906110832 56 282 1.7 2.6 0.00 0.00 0.00 48 1023.1
20260906110328 57 284 1.7 2.6 0.00 0.00 0.00 44 1023.1
20260906105827 57 319 1.7 2.6 0.00 0.00 0.00 43 1022.9
20260906105323 57 269 0.9 1.7 0.00 0.00 0.00 45 1022.7
20260906104818 56 267 1.7 2.6 0.00 0.00 0.00 46 1023.0
20260906104317 55 306 1.7 3.5 0.00 0.00 0.00 45 1022.9
20260906103816 55 321 1.7 2.6 0.00 0.00 0.00 48 1022.7
20260906103314 55 307 1.7 1.7 0.00 0.00 0.00 48 1022.7
20260906102811 55 267 1.7 1.7 0.00 0.00 0.00 50 1022.7
20260906102309 56 269 1.7 1.7 0.00 0.00 0.00 47 1022.7
20260906101806 56 276 1.7 1.7 0.00 0.00 0.00 50 1022.7
20260906101306 56 285 1.7 1.7 0.00 0.00 0.00 48 1022.9
20260906100801 56 300 0.9 0.9 0.00 0.00 0.00 47 1022.9
20260906100301 56 274 0.9 1.7 0.00 0.00 0.00 49 1022.6
20260906095756 56 285 0.0 1.7 0.00 0.00 0.00 48 1022.7
20260906095251 56 267 1.7 1.7 0.00 0.00 0.00 51 1022.6
20260906094750 56 288 0.9 1.7 0.00 0.00 0.00 53 1022.6
20260906094245 56 285 1.7 1.7 0.00 0.00 0.00 50 1022.7
20260906093741 57 290 1.7 1.7 0.00 0.00 0.00 47 1022.5
20260906093236 57 278 1.7 1.7 0.00 0.00 0.00 49 1022.5
20260906092732 57 301 1.7 1.7 0.00 0.00 0.00 43 1022.4
20260906092232 56 275 1.7 1.7 0.00 0.00 0.00 48 1022.4
20260906091727 56 299 0.9 1.7 0.00 0.00 0.00 47 1022.4
20260906091224 56 294 0.9 1.7 0.00 0.00 0.00 48 1022.6
20260906090720 55 280 0.9 1.7 0.00 0.00 0.00 50 1022.5
20260906090219 55 274 1.7 1.7 0.00 0.00 0.00 50 1022.6
20260906085719 55 272 0.9 1.7 0.00 0.00 0.00 51 1022.4
20260906085217 56 287 1.7 1.7 0.00 0.00 0.00 51 1022.6
20260906084713 56 267 1.7 1.7 0.00 0.00 0.00 53 1022.6
20260906084212 56 278 1.7 1.7 0.00 0.00 0.00 50 1022.6
20260906083708 56 290 1.7 1.7 0.00 0.00 0.00 47 1022.5
20260906083203 56 293 0.9 1.7 0.00 0.00 0.00 46 1022.6
20260906082658 56 303 1.7 1.7 0.00 0.00 0.00 46 1022.7
20260906082153 56 288 1.7 1.7 0.00 0.00 0.00 48 1022.6
20260906081649 57 274 0.9 1.7 0.00 0.00 0.00 45 1022.7
20260906081144 56 264 0.0 0.9 0.00 0.00 0.00 45 1022.5
20260906080640 56 276 1.7 1.7 0.00 0.00 0.00 51 1022.7
20260906080136 57 261 0.9 1.7 0.00 0.00 0.00 44 1022.6
20260906075636 57 293 1.7 1.7 0.00 0.00 0.00 49 1022.6
20260906075130 57 289 1.7 1.7 0.00 0.00 0.00 46 1022.5
20260906074626 57 283 1.7 1.7 0.00 0.00 0.00 48 1022.4
20260906074124 57 296 1.7 1.7 0.00 0.00 0.00 49 1022.5
20260906073619 57 294 1.7 2.6 0.00 0.00 0.00 49 1022.5
20260906073115 57 291 0.0 1.7 0.00 0.00 0.00 46 1022.4
20260906072611 57 291 0.9 1.7 0.00 0.00 0.00 49 1022.5
20260906072107 56 286 1.7 1.7 0.00 0.00 0.00 49 1022.5
20260906071603 57 267 1.7 1.7 0.00 0.00 0.00 50 1022.4
20260906071102 57 280 0.9 1.7 0.00 0.00 0.00 51 1022.5
20260906070559 57 314 0.9 1.7 0.00 0.00 0.00 50 1022.5
20260906070054 58 275 1.7 1.7 0.00 0.00 0.00 47 1022.4
20260906065554 58 287 1.7 1.7 0.00 0.00 0.00 46 1022.4
20260906065050 58 295 1.7 1.7 0.00 0.00 0.00 45 1022.5
20260906064545 58 284 1.7 1.7 0.00 0.00 0.00 46 1022.5
20260906064040 58 293 1.7 1.7 0.00 0.00 0.00 48 1022.4
20260906063536 58 300 0.0 1.7 0.00 0.00 0.00 46 1022.5
20260906063032 58 287 1.7 1.7 0.00 0.00 0.00 45 1022.5
20260906062527 57 299 0.9 1.7 0.00 0.00 0.00 44 1022.5
20260906062021 57 287 0.9 1.7 0.00 0.00 0.00 46 1022.6
20260906061517 57 283 0.9 1.7 0.00 0.00 0.00 47 1022.7
20260906061016 57 287 0.9 1.7 0.00 0.00 0.00 46 1022.7
20260906060513 58 280 1.7 1.7 0.00 0.00 0.00 46 1022.6
20260906060010 58 288 1.7 1.7 0.00 0.00 0.00 45 1022.5
20260906055506 58 287 0.9 1.7 0.00 0.00 0.00 44 1022.7
20260906055001 58 288 1.7 1.7 0.00 0.00 0.00 46 1022.6
20260906054500 59 275 0.9 1.7 0.00 0.00 0.00 41 1022.6
20260906053956 59 279 1.7 1.7 0.00 0.00 0.00 43 1022.7
20260906053452 59 274 0.9 1.7 0.00 0.00 0.00 46 1022.6
20260906052948 60 277 1.7 1.7 0.00 0.00 0.00 44 1022.7
20260906052443 60 271 0.9 1.7 0.00 0.00 0.00 42 1022.5
20260906051940 60 279 1.7 1.7 0.00 0.00 0.00 43 1022.7
20260906051435 61 273 0.9 1.7 0.00 0.00 0.00 41 1022.7
20260906050931 61 289 0.9 1.7 0.00 0.00 0.00 41 1022.9
20260906050431 61 290 0.9 1.7 0.00 0.00 0.00 40 1022.7
20260906045930 62 298 0.9 0.9 0.00 0.00 0.00 39 1023.0
20260906045429 61 306 0.0 0.9 0.00 0.00 0.00 39 1023.0
20260906044926 61 286 0.0 1.7 0.00 0.00 0.00 39 1023.1
20260906044425 61 294 0.9 1.7 0.00 0.00 0.00 40 1023.0
20260906043921 61 299 1.7 1.7 0.00 0.00 0.00 39 1023.1
20260906043417 62 285 1.7 1.7 0.00 0.00 0.00 40 1023.2
20260906042912 61 283 0.0 1.7 0.00 0.00 0.00 40 1023.0
20260906042411 61 293 0.0 1.7 0.00 0.00 0.00 38 1023.0
20260906041906 62 275 0.9 1.7 0.00 0.00 0.00 38 1023.0
20260906041403 62 280 0.9 1.7 0.00 0.00 0.00 38 1022.9
20260906040902 63 302 1.7 1.7 0.00 0.00 0.00 37 1022.9
20260906040357 63 294 1.7 1.7 0.00 0.00 0.00 38 1023.0
20260906035853 63 304 0.9 1.7 0.00 0.00 0.00 37 1023.0
20260906035348 63 266 0.9 1.7 0.00 0.00 0.00 37 1023.0
20260906034843 63 293 0.9 1.7 0.00 0.00 0.00 38 1023.1
20260906034338 63 308 0.9 1.7 0.00 0.00 0.00 38 1023.2
20260906033834 62 298 1.7 1.7 0.00 0.00 0.00 40 1023.1
20260906033333 62 300 0.9 1.7 0.00 0.00 0.00 40 1023.0
20260906032830 63 305 1.7 1.7 0.00 0.00 0.00 40 1023.0
20260906032325 64 284 1.7 1.7 0.00 0.00 0.00 41 1023.1
20260906031820 64 291 1.7 1.7 0.00 0.00 0.00 38 1023.0
20260906031316 65 230 0.0 1.7 0.00 0.00 0.00 35 1023.0
20260906030815 65 296 0.9 1.7 0.00 0.00 0.00 34 1022.7
20260906030311 65 298 0.9 1.7 0.00 0.00 0.00 36 1022.7
20260906025810 64 326 0.0 1.7 0.00 0.00 0.00 37 1022.7
20260906025306 65 274 0.0 1.7 0.00 0.00 0.00 35 1022.7
20260906024804 64 301 0.9 1.7 0.00 0.00 0.00 36 1022.7
20260906024303 64 298 1.7 1.7 0.00 0.00 0.00 42 1022.6
20260906023759 64 303 1.7 1.7 0.00 0.00 0.00 41 1022.5
20260906023254 65 302 1.7 1.7 0.00 0.00 0.00 39 1022.5
20260906022749 64 319 1.7 1.7 0.00 0.00 0.00 39 1022.4
20260906022244 65 300 1.7 2.6 0.00 0.00 0.00 41 1022.1
20260906021741 66 323 1.7 2.6 0.00 0.00 0.00 40 1022.3
20260906021240 67 318 1.7 1.7 0.00 0.00 0.00 40 1022.1
20260906020734 67 322 0.0 1.7 0.00 0.00 0.00 36 1022.4
20260906020229 68 272 0.9 1.7 0.00 0.00 0.00 37 1022.0
20260906015723 70 268 0.0 2.6 0.00 0.00 0.00 32 1022.0
20260906015221 71 235 0.0 0.9 0.00 0.00 0.00 29 1021.9
20260906014716 71 290 0.0 1.7 0.00 0.00 0.00 30 1022.0
20260906014212 71 252 0.0 0.9 0.00 0.00 0.00 28 1022.1
20260906013708 71 212 0.0 2.6 0.00 0.00 0.00 28 1021.9
20260906013209 71 277 0.0 1.7 0.00 0.00 0.00 31 1021.9
20260906012704 71 272 0.9 0.9 0.00 0.00 0.00 30 1022.0
20260906012203 72 280 0.9 0.9 0.00 0.00 0.00 31 1021.9
20260906011659 73 276 0.9 1.7 0.00 0.00 0.00 33 1021.9
20260906011154 73 229 0.0 1.7 0.00 0.00 0.00 28 1021.8
20260906010649 74 233 0.0 1.7 0.00 0.00 0.00 27 1021.9
20260906010146 75 303 0.9 1.7 0.00 0.00 0.00 31 1021.6
20260906005645 76 218 0.0 1.7 0.00 0.00 0.00 26 1021.8
20260906005144 77 297 0.0 0.0 0.00 0.00 0.00 26 1021.5
20260906004643 77 265 0.9 1.7 0.00 0.00 0.00 26 1021.6
20260906004138 77 234 0.9 1.7 0.00 0.00 0.00 28 1021.4
20260906003633 78 154 0.0 1.7 0.00 0.00 0.00 25 1021.5
20260906003129 78 218 1.7 1.7 0.00 0.00 0.00 28 1021.5
20260906002624 77 281 0.9 1.7 0.00 0.00 0.00 24 1021.5
20260906002119 77 294 0.9 2.6 0.00 0.00 0.00 26 1021.5
20260906001614 78 107 0.0 2.6 0.00 0.00 0.00 24 1021.4
20260906001108 78 219 1.7 1.7 0.00 0.00 0.00 24 1021.6
20260906000604 78 220 0.9 2.6 0.00 0.00 0.00 23 1021.6
20260906000059 78 234 1.7 1.7 0.00 0.00 0.00 23 1021.5
20260905235558 78 261 0.9 2.6 0.00 0.00 0.00 23 1021.6
20260905235054 78 219 0.9 2.6 0.00 0.00 0.00 23 1021.9
20260905234549 78 222 1.7 2.6 0.00 0.00 0.00 24 1021.9
20260905234044 79 215 0.9 2.6 0.00 0.00 0.00 22 1021.8
20260905233539 79 213 1.7 3.5 0.00 0.00 0.00 22 1021.6
20260905233038 78 223 0.9 2.6 0.00 0.00 0.00 22 1021.5